Hourly Data Report for April 07, 2003

SHERBROOKE A
QUEBEC

45°26'00.000" N
71°41'00.000" W
241.40 m
7028124
71610
YSC

Download Data

Hourly Data (April 2003)
Hourly Data Report for April 7, 2003
TIME
LST
Temp Definition
°C
Dew Point Definition
°C
Rel Hum Definition
%
Precip. Amount Definition
mm

Wind Dir Definition
10's deg

Wind Spd Definition
km/h
Visibility Definition
km
Stn Press Definition
kPa
Hmdx Definition


Wind Chill Definition


Weather Definition


00:00 -13.1 -15.0 86   25 4 15.0 100.39   -16  
01:00 -12.5 -14.5 85     0 15.0 100.52      
02:00 -12.7 -15.6 79     0 15.0 100.54      
03:00 -12.7 -14.9 84   23 6 15.0 100.63   -17  
04:00 -16.3 -18.1 86   27 4 15.0 100.66   -19  
05:00 -18.2 -18.9 94   9 4 15.0 100.71   -21  
06:00 -17.7 -18.6 93   14 4 15.0 100.79   -21  
07:00 -11.1 -15.1 72   24 6 24.1 100.85   -15 Mainly Clear
08:00 -8.0 -16.7 50     0 24.1 100.88     Mainly Clear
09:00 -7.3 -18.6 40   27 6 24.1 100.92   -10 Mainly Clear
10:00 -4.8 -18.0 35     0 24.1 100.86     Mainly Clear
11:00 -4.2 -19.0 31   32 11 24.1 100.80   -9 Mainly Clear
12:00 -2.8 -20.4 24   35 6 24.1 100.77   -5 Mainly Clear
13:00 -2.2 -20.8 23   28 9 24.1 100.72   -6 Mainly Clear
14:00 -1.4 -20.4 22   29 9 24.1 100.67   -5 Mostly Cloudy
15:00 -1.0 -20.7 21   27 4 24.1 100.65   -2 Mostly Cloudy
16:00 -1.8 -17.3 29   28 13 24.1 100.63   -6 Cloudy
17:00 -2.0 -16.7 31   24 11 15.0 100.62   -6  
18:00 -2.8 LegendMM LegendMM   28 7 15.0 100.62   -6  
19:00 -3.2 -14.1 43   34 6 15.0 100.59   -6  
20:00 -3.8 -15.2 41   4 6 15.0 100.53   -6  
21:00 -4.7 -14.7 45   5 9 15.0 100.45   -9  
22:00 -4.4 -14.6 45   4 9 15.0 100.41   -8  
23:00 -4.3 -14.8 44   7 11 15.0 100.37   -9  

Notes on Data Quality.

Legend

  • E = Estimated
  • M = Missing
  • NA = Not Available*
  • [empty] = Indicates an unobserved value
Date modified: